Temperature
21 20 20 20 19 19 19 19 18 18 18 18 18 17 17 17 17 16 16 16 16 16 16 16 16 16 15 15 15 15 15 14 14 14 14 13 13 13 13 13 13 13 13
21 21 20 20 20 19 19 19 19 18 18 18 18 17 17 17 17 16 16 16 16 16 16 16 16 16 15 15 15 15 15 14 14 14 14 13 13 13 13 13 12 12 12
21 21 20 20 20 20 19 19 19 19 18 18 18 18 17 17 17 16 16 16 16 16 16 15 15 15 15 15 15 14 14 14 14 14 13 13 13 13 12 12 12 12 12
21 21 21 20 20 20 19 19 19 19 18 18 18 18 17 17 17 16 16 16 16 16 15 15 15 15 15 15 14 14 14 14 14 13 13 13 13 12 12 12 12 12 12
22 21 21 20 20 20 19 19 19 19 18 18 18 18 17 17 17 16 16 16 16 16 15 15 15 15 14 14 14 14 14 14 13 13 13 13 12 12 12 12 12 11 11
22 21 21 21 20 20 19 19 19 19 18 18 18 18 17 17 17 16 16 16 16 15 15 15 15 14 14 14 14 14 13 13 13 13 13 12 12 12 12 11 11 11 11
21 21 21 20 20 19 19 19 19 18 18 18 18 17 17 17 16 16 16 15 15 15 15 15 14 14 14 14 14 13 13 13 13 13 13 12 12 12 11 11 11 11 11
21 21 20 20 20 19 19 19 19 18 18 18 17 17 17 17 16 16 15 15 15 15 15 14 14 14 14 14 13 13 13 13 13 12 12 12 12 12 11 11 11 11 11
20 20 20 20 20 19 19 19 19 18 18 17 17 17 16 16 16 15 15 15 15 15 15 14 14 14 14 13 13 13 13 13 12 12 12 12 11 11 11 11 11 11 10
20 19 19 19 19 19 19 19 18 18 18 17 17 17 16 16 16 15 15 15 15 15 14 14 14 13 13 13 13 13 13 12 12 12 12 11 11 11 11 11 11 10 10
19 19 19 19 18 18 18 18 18 17 17 17 16 16 16 16 15 15 15 14 14 14 14 14 13 13 13 13 12 12 12 12 12 12 12 11 11 11 11 11 11 10 10
18 18 18 18 18 18 18 17 17 17 17 17 16 16 16 16 15 15 15 14 14 14 14 13 13 13 12 12 12 12 12 12 12 11 11 11 11 11 11 11 10 10 10
18 18 18 18 17 17 17 17 17 16 16 16 16 16 16 15 15 15 14 14 14 13 13 13 12 12 12 12 12 12 11 11 11 11 11 11 11 11 11 10 10 10 10
17 17 18 17 17 17 17 17 16 16 16 16 16 16 15 15 15 14 14 14 13 13 13 12 12 12 12 11 11 11 11 11 11 11 11 11 11 11 11 10 10 10 10
17 17 17 17 17 17 16 16 16 16 16 15 15 15 15 15 14 14 14 13 13 13 12 12 12 12 11 11 11 11 11 11 11 11 11 11 10 10 10 10 10 10 10
16 16 16 17 16 16 16 16 15 15 15 15 14 14 14 14 13 13 13 13 12 12 12 12 11 11 11 11 11 11 11 11 11 11 10 10 10 10 10 10 9 9 9
16 16 16 16 16 16 16 15 15 15 15 14 14 14 13 13 13 12 12 12 12 11 11 11 11 11 11 11 11 11 11 10 10 10 10 10 10 10 9 9 9 9 9
15 15 15 15 15 15 15 15 15 14 14 14 13 13 13 13 12 12 12 12 11 11 11 11 11 11 11 11 10 10 10 10 10 10 10 10 9 9 9 9 9 9 9
15 15 15 15 15 15 15 14 14 14 14 13 13 13 12 12 12 12 11 11 11 11 11 11 11 11 11 10 10 10 10 10 10 9 9 9 9 9 8 8 8 8 8
15 15 14 14 14 14 14 14 13 13 13 13 13 12 12 12 12 12 11 11 11 11 11 11 11 11 10 10 10 10 10 10 9 9 9 9 9 8 8 8 8 8 8
14 14 14 14 14 14 13 13 13 13 13 12 12 12 12 12 12 11 11 11 11 11 11 11 10 10 10 10 10 10 9 9 9 9 9 9 8 8 8 8 8 8 8
14 14 13 13 13 13 13 13 12 12 12 12 12 12 12 11 11 11 11 11 11 11 11 10 10 10 10 10 10 9 9 9 9 9 8 8 8 8 8 8 8 7 7
13 13 13 13 13 12 12 12 12 12 12 12 12 11 11 11 11 11 11 11 11 10 10 10 10 10 10 10 9 9 9 9 9 8 8 8 8 8 7 7 7 7 7
13 13 13 13 12 12 12 12 12 12 12 11 11 11 11 11 11 11 11 11 10 10 10 10 10 10 10 9 9 9 9 9 8 8 8 8 7 7 7 7 7 7 7
12 12 12 12 12 12 12 12 12 11 11 11 11 11 11 11 10 10 10 10 10 10 10 10 9 9 9 9 9 9 9 8 8 8 8 7 7 7 7 7 7 7 7
12 12 12 12 12 12 11 11 11 11 11 11 11 11 10 10 10 10 10 10 10 10 9 9 9 9 9 9 9 8 8 8 8 8 7 7 7 7 7 7 6 6 6
Wind_Speed
6 6 5 5 5 5 4 3 3 2 3 3 3 2 2 2 2 2 2 1 2 1 0 1 2 2 2 2 2 3 3 3 2 1 0 0 1 1 2 3 3 3 3
6 6 6 5 5 5 4 4 4 3 3 3 3 3 2 2 2 3 2 2 2 1 1 1 1 1 2 2 2 3 3 3 3 3 1 1 0 1 1 1 2 2 2
7 7 6 6 6 5 5 4 4 4 3 3 3 3 3 3 3 3 3 2 2 2 2 2 2 2 2 2 2 2 2 3 3 3 2 1 0 1 1 0 1 1 1
7 7 7 7 7 6 5 4 4 4 4 3 3 3 3 3 3 3 3 3 2 1 1 2 2 3 3 3 3 3 3 3 3 3 2 1 1 1 1 1 0 0 0
7 7 7 6 6 6 5 4 4 4 3 3 3 2 2 2 3 3 3 3 3 2 1 1 2 2 3 3 3 4 4 4 4 3 2 2 2 2 2 2 2 1 1
6 7 6 6 6 6 6 5 4 4 3 3 3 3 3 3 3 4 4 3 3 3 2 1 1 1 2 3 4 5 6 6 5 4 3 4 4 3 2 2 2 1 2
6 6 7 7 7 7 7 6 5 5 4 4 4 4 4 4 4 4 5 4 3 3 3 2 1 1 2 2 3 4 4 6 7 6 6 5 5 5 5 4 3 3 3
5 5 6 7 7 7 6 6 6 5 5 4 5 4 4 4 5 5 5 4 3 3 3 3 3 2 2 3 3 2 2 3 5 5 6 6 5 5 6 4 3 2 2
4 5 5 6 6 6 7 7 6 5 5 4 4 4 4 4 5 5 5 3 3 3 2 2 3 3 3 4 4 3 2 2 2 4 5 5 5 7 7 4 3 2 2
4 4 4 5 6 7 7 6 4 4 5 4 4 4 5 5 5 7 6 3 3 2 2 2 3 4 4 5 4 4 3 3 2 1 2 2 4 6 8 7 5 4 3
3 3 3 4 5 6 5 5 4 4 4 4 4 4 4 4 5 6 7 5 4 4 3 2 2 3 4 4 4 4 4 4 2 2 2 2 2 3 4 5 6 5 4
3 3 3 3 4 4 4 4 4 4 4 4 4 4 3 3 4 6 7 7 5 4 4 3 2 4 5 5 4 4 5 4 2 2 2 3 3 3 4 5 6 7 6
2 3 2 3 3 3 4 5 4 4 4 4 4 4 3 2 3 5 6 6 6 4 3 4 4 4 4 3 4 5 4 3 3 3 3 3 3 3 3 2 3 3 4
3 3 3 3 3 3 3 4 4 5 5 5 4 4 3 2 2 2 3 3 4 3 2 2 3 3 1 1 1 2 3 3 4 4 4 3 2 2 3 2 2 2 2
3 3 3 3 4 4 3 3 4 5 6 6 5 5 4 4 5 6 5 4 4 4 3 2 1 1 1 1 1 1 2 2 3 3 3 3 2 2 2 2 2 2 3
3 3 3 3 3 3 3 2 1 2 3 4 5 5 4 5 5 7 7 6 5 6 4 2 3 3 3 3 3 3 3 3 4 4 4 4 3 3 3 2 2 3 4
5 4 3 3 4 4 4 4 2 0 1 2 3 5 5 5 6 7 6 5 5 7 3 3 4 4 4 4 4 4 4 4 3 4 4 4 4 3 3 3 3 4 4
4 4 4 4 5 5 5 5 4 4 3 1 1 3 5 5 6 6 6 5 2 3 4 5 5 5 5 5 5 4 4 3 3 4 4 4 4 4 4 5 5 5 5
4 4 4 4 4 4 4 4 4 4 4 2 1 1 2 3 4 5 6 4 4 5 5 5 5 5 5 5 5 5 4 4 4 4 4 5 5 5 5 5 5 6 6
3 4 3 3 3 3 3 4 4 3 3 3 3 3 3 2 2 2 3 4 5 5 5 6 5 5 5 5 5 5 4 5 5 5 5 5 5 6 6 6 6 6 6
2 2 3 3 3 3 3 4 4 3 3 4 4 4 6 4 5 5 5 5 6 6 6 6 6 6 6 5 5 6 6 5 5 5 5 5 6 6 6 6 6 7 6
2 2 3 3 2 2 3 3 3 3 4 4 3 3 6 4 4 5 5 6 6 6 6 5 6 6 6 6 6 6 6 6 6 6 6 6 6 6 6 6 6 6 6
2 2 2 2 2 3 2 2 3 3 3 3 3 2 3 4 4 5 5 5 5 5 5 5 6 6 6 6 6 6 7 7 7 6 6 6 6 6 6 7 7 7 7
2 2 2 2 2 2 3 3 3 3 3 3 3 3 3 4 4 5 5 5 4 5 4 5 6 7 8 6 6 6 7 7 7 7 8 7 7 6 6 7 8 9 8
2 2 2 2 3 3 3 3 3 3 3 3 3 3 3 4 4 4 4 4 5 5 6 6 5 7 8 9 7 6 7 8 8 8 7 7 7 7 7 7 7 7 7
2 2 2 2 2 2 3 3 3 3 3 3 3 3 3 4 4 4 4 4 4 5 6 5 7 8 8 7 8 8 7 8 8 9 8 6 7 7 7 7 7 7 7
Wind_Direction
189 188 180 177 176 173 177 188 186 180 172 166 169 164 154 146 141 139 149 143 148 152 170 190 218 187 180 186 181 180 177 169 191 229 202 164 130 116 82 81 78 80 78
185 182 184 177 170 174 182 188 180 177 177 175 172 168 174 164 156 157 167 162 167 193 229 202 229 183 169 182 180 184 181 175 179 189 193 162 142 160 137 111 90 94 98
182 181 181 181 179 186 189 185 178 178 174 168 166 172 178 173 169 173 173 175 191 217 227 218 232 186 189 188 181 181 178 164 156 163 174 156 123 142 120 99 92 69 87
181 179 187 193 192 190 186 181 180 180 176 176 177 182 186 185 183 181 173 175 189 213 221 216 219 204 206 194 182 181 170 159 149 149 149 140 144 171 163 174 207 317 242
181 188 199 197 191 181 180 182 181 184 188 182 177 190 200 197 200 191 186 183 182 184 205 230 222 197 193 195 186 181 172 170 164 162 160 157 173 182 201 206 212 241 259
187 198 196 191 190 185 188 185 180 184 188 185 195 199 209 222 207 193 183 183 186 191 209 235 229 208 193 190 185 180 176 176 183 184 191 192 205 205 201 189 186 194 244
196 195 191 190 193 194 192 183 190 197 196 203 212 202 214 225 207 198 192 190 199 208 210 219 232 236 205 195 188 182 190 189 186 188 194 202 200 197 190 194 201 214 236
192 198 195 192 194 191 186 191 197 197 197 209 216 212 214 227 208 201 195 196 207 218 215 207 206 226 216 184 178 180 199 205 203 202 207 211 207 196 193 196 200 217 243
199 205 203 197 195 192 194 200 201 196 203 207 206 205 214 228 210 199 187 193 207 227 231 218 206 210 207 178 168 178 199 241 228 214 211 204 196 187 175 162 164 189 240
211 212 208 199 199 203 204 201 198 194 202 195 204 207 213 223 214 201 188 191 202 222 237 235 215 204 198 183 178 179 200 235 227 204 193 189 189 186 181 186 190 201 227
206 194 192 195 203 207 203 197 188 182 185 198 211 224 224 222 214 203 193 197 203 212 222 231 233 205 198 193 190 200 213 212 210 203 207 207 198 197 199 202 202 204 216
180 186 194 202 205 204 191 191 183 180 188 209 219 235 239 228 215 211 203 203 198 197 211 213 212 204 202 200 199 204 199 184 184 192 207 216 219 225 229 228 225 223 227
179 199 205 208 202 191 191 190 184 188 198 214 217 228 243 234 224 215 205 201 194 197 212 205 205 202 199 202 204 201 191 183 183 197 218 229 230 232 230 229 228 229 237
200 218 220 199 195 197 206 193 190 197 206 213 219 225 228 219 221 212 205 201 195 203 212 198 194 196 180 189 202 201 198 197 198 213 225 231 224 215 218 217 216 211 234
211 211 207 198 194 200 207 203 203 212 210 208 218 208 202 218 225 204 191 193 192 192 164 141 144 172 198 220 224 224 223 208 212 222 222 221 222 226 231 214 209 209 224
212 216 215 212 205 200 199 209 214 207 198 200 202 197 212 215 195 186 188 188 177 160 148 173 199 212 221 227 230 236 233 230 229 227 224 223 225 229 237 231 218 223 235
214 219 218 211 203 200 196 195 201 29 92 157 190 191 191 189 180 181 183 174 167 157 173 206 220 225 229 230 231 235 238 236 226 224 225 226 227 229 234 240 235 236 242
218 221 221 215 204 200 198 199 197 192 197 235 248 201 189 187 183 176 162 142 155 183 214 224 230 231 231 233 236 240 244 243 233 228 227 229 229 230 234 238 237 240 244
222 220 217 212 201 193 191 193 197 196 197 200 187 209 191 171 165 171 161 182 203 217 225 232 235 235 237 237 239 238 237 236 235 232 232 231 231 231 237 241 242 239 239
220 217 205 195 191 188 186 187 193 196 203 210 213 209 183 169 196 202 205 219 224 230 232 236 240 240 237 237 238 236 236 236 235 235 237 236 234 234 239 241 242 243 241
197 194 182 184 191 191 186 191 194 193 207 225 234 222 197 206 215 220 223 227 231 234 235 236 239 240 238 237 236 233 232 236 235 236 239 238 235 236 240 241 244 244 244
176 182 191 197 194 194 190 192 196 203 211 224 240 226 199 219 229 231 233 237 240 240 238 235 238 239 238 236 233 231 230 232 233 232 235 238 237 237 236 240 243 244 243
175 178 186 189 180 180 188 198 203 212 218 226 230 221 212 228 236 239 241 242 243 244 243 238 241 244 246 240 233 228 229 234 233 228 228 234 236 235 237 242 246 249 244
181 180 184 189 184 190 201 208 217 221 223 228 231 228 227 231 237 242 244 247 248 248 245 241 241 241 242 238 233 231 234 238 235 230 228 231 237 241 241 244 246 247 246
186 186 191 196 197 202 207 207 213 220 221 226 232 238 242 242 246 251 255 253 251 252 250 247 247 246 243 239 238 236 233 232 231 231 228 229 235 238 241 243 244 247 245
205 205 201 199 201 200 204 208 212 218 223 231 235 239 243 248 252 255 257 254 253 256 257 256 249 246 243 239 240 234 227 228 229 227 226 231 234 238 238 238 241 241 244
Height
1532 1534 1535 1536 1538 1539 1540 1540 1541 1542 1543 1543 1543 1543 1543 1543 1543 1543 1543 1543 1543 1543 1543 1543 1543 1543 1543 1543 1543 1543 1544 1544 1545 1545 1546 1547 1547 1547 1547 1547 1546 1546 1546
1530 1532 1533 1535 1536 1537 1538 1539 1540 1541 1541 1542 1542 1542 1542 1542 1541 1541 1541 1541 1541 1541 1541 1541 1541 1541 1541 1541 1541 1541 1541 1542 1542 1542 1543 1544 1545 1545 1545 1545 1545 1545 1544
1527 1529 1531 1532 1534 1535 1536 1537 1538 1539 1539 1540 1540 1540 1540 1540 1540 1540 1539 1539 1540 1540 1539 1539 1538 1538 1538 1538 1538 1538 1539 1539 1540 1540 1540 1541 1542 1542 1543 1543 1543 1543 1543
1525 1526 1528 1530 1531 1532 1534 1535 1536 1536 1537 1538 1538 1538 1538 1538 1538 1538 1537 1537 1537 1537 1537 1537 1536 1536 1536 1536 1536 1536 1536 1537 1537 1537 1538 1539 1539 1540 1540 1541 1541 1541 1541
1522 1523 1524 1526 1529 1530 1531 1532 1533 1534 1535 1535 1536 1536 1536 1536 1536 1536 1535 1535 1535 1535 1534 1534 1534 1534 1533 1534 1533 1533 1534 1534 1535 1535 1535 1536 1536 1537 1538 1538 1539 1539 1539
1518 1520 1522 1524 1525 1526 1527 1528 1530 1531 1532 1532 1533 1533 1533 1533 1533 1533 1533 1533 1533 1532 1532 1532 1531 1531 1531 1531 1531 1531 1532 1532 1532 1533 1533 1533 1534 1535 1535 1536 1536 1536 1537
1515 1516 1518 1520 1521 1523 1524 1525 1526 1528 1528 1529 1530 1530 1530 1530 1530 1530 1530 1530 1530 1530 1529 1529 1529 1529 1529 1529 1529 1529 1529 1530 1530 1531 1530 1530 1531 1532 1533 1533 1534 1534 1534
1511 1512 1514 1516 1517 1519 1520 1521 1523 1524 1525 1526 1526 1526 1526 1527 1527 1527 1527 1527 1527 1527 1526 1526 1526 1526 1526 1526 1526 1526 1526 1527 1527 1528 1528 1528 1529 1530 1530 1531 1531 1532 1532
1509 1510 1511 1512 1513 1515 1516 1517 1519 1520 1521 1522 1522 1522 1523 1523 1523 1524 1524 1524 1523 1523 1523 1522 1522 1523 1523 1522 1522 1522 1523 1524 1524 1525 1526 1526 1527 1527 1528 1528 1529 1529 1529
1505 1506 1508 1509 1510 1512 1513 1514 1515 1516 1517 1518 1518 1518 1518 1518 1519 1520 1520 1520 1519 1519 1520 1519 1519 1519 1519 1519 1519 1519 1520 1521 1521 1522 1523 1523 1524 1524 1525 1525 1525 1526 1526
1502 1503 1504 1505 1507 1508 1510 1511 1511 1512 1513 1514 1514 1514 1514 1514 1515 1516 1516 1516 1515 1515 1516 1516 1516 1516 1515 1516 1516 1517 1517 1518 1518 1519 1519 1520 1521 1521 1522 1522 1522 1522 1523
1499 1499 1500 1501 1503 1505 1506 1506 1507 1508 1508 1509 1509 1509 1509 1509 1510 1511 1512 1512 1512 1512 1512 1512 1512 1513 1512 1513 1513 1514 1515 1515 1515 1515 1516 1516 1517 1518 1518 1519 1519 1519 1519
1495 1496 1496 1498 1499 1501 1502 1501 1502 1503 1504 1504 1504 1504 1504 1505 1506 1507 1507 1507 1508 1508 1509 1509 1510 1510 1510 1510 1510 1511 1512 1512 1512 1512 1513 1513 1514 1514 1515 1515 1515 1515 1516
1492 1492 1493 1494 1495 1496 1498 1497 1498 1499 1499 1499 1499 1499 1500 1501 1502 1502 1503 1503 1504 1505 1505 1506 1506 1507 1507 1507 1507 1508 1508 1509 1508 1509 1509 1510 1511 1511 1511 1511 1511 1511 1511
1489 1489 1489 1490 1491 1492 1493 1493 1493 1494 1495 1495 1495 1495 1495 1496 1498 1499 1499 1500 1500 1501 1502 1502 1502 1503 1503 1503 1504 1504 1505 1505 1505 1505 1506 1506 1506 1506 1506 1507 1506 1506 1506
1484 1485 1486 1486 1487 1487 1488 1489 1489 1490 1491 1491 1492 1492 1493 1494 1495 1495 1496 1497 1498 1498 1498 1498 1499 1499 1500 1500 1500 1500 1501 1501 1501 1501 1501 1501 1501 1502 1502 1502 1502 1502 1501
1480 1481 1481 1482 1483 1483 1483 1484 1485 1486 1487 1488 1489 1489 1490 1491 1492 1492 1493 1494 1494 1494 1494 1495 1495 1496 1496 1496 1496 1496 1496 1497 1497 1496 1497 1497 1497 1497 1497 1497 1497 1497 1497
1477 1477 1477 1478 1478 1479 1479 1480 1481 1482 1482 1483 1485 1486 1487 1488 1488 1489 1490 1490 1490 1490 1490 1491 1491 1492 1492 1492 1492 1492 1492 1492 1492 1492 1492 1492 1492 1492 1492 1492 1492 1491 1492
1472 1473 1473 1473 1474 1474 1475 1477 1477 1478 1479 1480 1481 1482 1484 1484 1485 1486 1486 1486 1485 1486 1486 1487 1487 1487 1487 1487 1487 1487 1487 1487 1487 1486 1487 1487 1486 1486 1486 1487 1486 1486 1487
1468 1469 1469 1470 1470 1471 1472 1473 1474 1475 1476 1476 1477 1479 1480 1480 1481 1481 1482 1482 1482 1482 1483 1483 1483 1483 1483 1483 1483 1482 1482 1481 1481 1481 1481 1481 1481 1481 1481 1481 1481 1481 1481
1464 1465 1466 1467 1467 1468 1468 1470 1471 1472 1473 1473 1474 1476 1476 1477 1477 1477 1478 1478 1478 1478 1478 1478 1478 1478 1478 1478 1477 1477 1476 1476 1476 1476 1476 1476 1476 1476 1476 1476 1476 1475 1475
1461 1462 1463 1464 1464 1465 1466 1467 1468 1469 1470 1470 1471 1472 1473 1473 1473 1474 1474 1474 1474 1474 1474 1474 1473 1473 1473 1472 1472 1472 1471 1470 1470 1470 1471 1471 1470 1470 1470 1470 1470 1470 1470
1459 1459 1461 1461 1462 1463 1463 1464 1465 1466 1467 1467 1468 1468 1469 1469 1469 1470 1470 1470 1470 1470 1470 1469 1469 1468 1468 1467 1467 1466 1465 1465 1465 1465 1465 1465 1465 1465 1465 1464 1464 1464 1464
1456 1457 1458 1458 1459 1460 1461 1462 1463 1464 1464 1464 1465 1465 1465 1465 1466 1466 1466 1465 1465 1465 1464 1464 1463 1463 1462 1461 1461 1460 1460 1460 1460 1460 1460 1459 1459 1459 1459 1458 1458 1459 1459
1454 1454 1455 1456 1457 1458 1459 1459 1460 1461 1461 1462 1462 1462 1462 1462 1462 1462 1461 1461 1461 1460 1460 1459 1458 1457 1456 1456 1455 1455 1455 1454 1454 1454 1454 1454 1453 1453 1453 1452 1452 1452 1453
1452 1453 1454 1454 1455 1455 1456 1457 1457 1458 1458 1459 1459 1459 1458 1458 1458 1458 1457 1457 1456 1456 1455 1454 1452 1452 1451 1450 1450 1449 1449 1448 1448 1448 1448 1447 1447 1447 1447 1446 1447 1447 1447